DW4554 Weather Reports


time (UTC)temp
C
wind
direction
speed
KPH
gust
KPH
rain 1hr
cm
rain 24hr
cm
rain mn
cm
humidity
%
barometer
mb
20260902212404 15 86 0.0 0.0 0.00 0.00 0.00 78 1017.5
20260902211904 15 86 0.0 0.0 0.00 0.00 0.00 78 1017.5
20260902210904 16 86 0.0 0.0 0.00 0.00 0.00 77 1017.6
20260902210404 16 86 0.0 0.0 0.00 0.00 0.00 77 1017.5
20260902204904 16 86 0.0 0.0 0.00 0.00 0.00 76 1017.4
20260902204404 16 86 0.0 0.0 0.00 0.00 0.00 75 1017.3
20260902203904 16 86 0.0 0.0 0.00 0.00 0.00 75 1017.3
20260902203404 16 86 0.0 0.0 0.00 0.00 0.00 74 1017.3
20260902202905 17 86 0.0 0.0 0.00 0.00 0.00 74 1017.2
20260902202405 17 86 0.0 0.0 0.00 0.00 0.00 73 1017.2
20260902201904 17 86 0.0 0.0 0.00 0.00 0.00 73 1017.2
20260902200905 17 86 0.0 0.0 0.00 0.00 0.00 72 1017.0
20260902200405 17 86 0.0 0.0 0.00 0.00 0.00 71 1017.1
20260902195905 17 86 0.0 0.0 0.00 0.00 0.00 71 1017.1
20260902195404 17 86 1.6 3.2 0.00 0.00 0.00 70 1017.0
20260902194904 17 86 1.6 4.8 0.00 0.00 0.00 70 1017.0
20260902194405 17 86 3.2 4.8 0.00 0.00 0.00 70 1017.0
20260902193906 18 252 1.6 4.8 0.00 0.00 0.00 69 1017.0
20260902192904 18 252 0.0 0.0 0.00 0.00 0.00 68 1017.1
20260902192404 18 252 0.0 4.8 0.00 0.00 0.00 67 1017.2
20260902191904 18 252 1.6 3.2 0.00 0.00 0.00 66 1017.1
20260902191404 18 252 1.6 4.8 0.00 0.00 0.00 66 1017.1
20260902190904 18 251 3.2 4.8 0.00 0.00 0.00 66 1017.1
20260902190404 19 250 0.0 0.0 0.00 0.00 0.00 65 1017.1
20260902185904 19 250 0.0 0.0 0.00 0.00 0.00 65 1017.1
20260902184904 20 250 0.0 0.0 0.00 0.00 0.00 63 1017.2
20260902184404 20 250 0.0 0.0 0.00 0.00 0.00 62 1017.2
20260902183904 20 250 0.0 0.0 0.00 0.00 0.00 61 1017.2
20260902183404 20 250 0.0 0.0 0.00 0.00 0.00 61 1017.2
20260902182904 20 250 0.0 0.0 0.00 0.00 0.00 60 1017.1
20260902182404 21 250 0.0 3.2 0.00 0.00 0.00 60 1017.0
20260902181904 21 250 1.6 3.2 0.00 0.00 0.00 59 1016.9
20260902181404 21 250 1.6 3.2 0.00 0.00 0.00 59 1016.9
20260902180904 21 250 1.6 3.2 0.00 0.00 0.00 59 1016.7
20260902180405 21 250 3.2 3.2 0.00 0.00 0.00 58 1016.8
20260902175904 22 250 0.0 1.6 0.00 0.00 0.00 57 1016.8
20260902174904 22 250 0.0 1.6 0.00 0.00 0.00 57 1016.7
20260902174404 22 250 1.6 1.6 0.00 0.00 0.00 57 1016.7
20260902173404 22 250 0.0 0.0 0.00 0.00 0.00 57 1016.8
20260902171904 23 250 1.6 3.2 0.00 0.00 0.00 55 1016.6
20260902171404 23 250 0.0 0.0 0.00 0.00 0.00 55 1016.6
20260902170904 23 250 0.0 0.0 0.00 0.00 0.00 55 1016.6
20260902170404 23 250 0.0 0.0 0.00 0.00 0.00 55 1016.5
20260902165904 24 250 0.0 0.0 0.00 0.00 0.00 54 1016.5
20260902165404 24 250 0.0 0.0 0.00 0.00 0.00 53 1016.6
20260902164904 24 250 0.0 0.0 0.00 0.00 0.00 53 1016.6
20260902164405 25 250 0.0 0.0 0.00 0.00 0.00 51 1016.7
20260902163905 25 250 0.0 0.0 0.00 0.00 0.00 51 1016.7
20260902163404 25 250 0.0 0.0 0.00 0.00 0.00 50 1016.6
20260902162904 25 250 0.0 0.0 0.00 0.00 0.00 49 1016.6
20260902162405 25 250 0.0 0.0 0.00 0.00 0.00 49 1016.5
20260902161905 25 250 0.0 0.0 0.00 0.00 0.00 48 1016.5
20260902161404 25 250 0.0 0.0 0.00 0.00 0.00 48 1016.5
20260902160904 26 250 0.0 0.0 0.00 0.00 0.00 47 1016.6
20260902160404 26 250 0.0 0.0 0.00 0.00 0.00 46 1016.7
20260902155904 26 250 0.0 0.0 0.00 0.00 0.00 45 1016.7
20260902155405 26 250 0.0 0.0 0.00 0.00 0.00 44 1016.7
20260902154904 26 250 0.0 3.2 0.00 0.00 0.00 44 1016.7
20260902154404 26 250 0.0 3.2 0.00 0.00 0.00 43 1016.8
20260902153905 26 250 1.6 3.2 0.00 0.00 0.00 43 1016.8
20260902153404 26 250 1.6 4.8 0.00 0.00 0.00 43 1016.8
20260902152904 27 293 1.6 4.8 0.00 0.00 0.00 42 1016.9
20260902152405 27 296 1.6 4.8 0.00 0.00 0.00 41 1017.0
20260902151904 27 280 4.8 8.0 0.00 0.00 0.00 40 1017.0
20260902150404 27 233 1.6 4.8 0.00 0.00 0.00 40 1017.0
20260902145904 27 233 3.2 8.0 0.00 0.00 0.00 40 1017.1
20260902145404 27 237 3.2 4.8 0.00 0.00 0.00 41 1017.1
20260902144904 27 240 3.2 4.8 0.00 0.00 0.00 41 1017.1
20260902143904 27 231 3.2 4.8 0.00 0.00 0.00 41 1017.2
20260902143404 27 277 1.6 4.8 0.00 0.00 0.00 40 1017.2
20260902142904 27 276 3.2 8.0 0.00 0.00 0.00 40 1017.2
20260902142404 27 285 4.8 11.3 0.00 0.00 0.00 41 1017.3
20260902141404 27 218 4.8 11.3 0.00 0.00 0.00 41 1017.3
20260902140904 27 198 8.0 12.9 0.00 0.00 0.00 40 1017.3
20260902140405 27 212 6.4 12.9 0.00 0.00 0.00 40 1017.3
20260902135904 27 234 8.0 12.9 0.00 0.00 0.00 39 1017.4
20260902135405 28 208 8.0 14.5 0.00 0.00 0.00 39 1017.4
20260902134904 28 195 4.8 9.7 0.00 0.00 0.00 42 1017.5
20260902133904 27 218 4.8 11.3 0.00 0.00 0.00 42 1017.5
20260902133404 27 231 3.2 9.7 0.00 0.00 0.00 41 1017.5
20260902132904 27 189 8.0 14.5 0.00 0.00 0.00 42 1017.6
20260902132404 27 202 4.8 12.9 0.00 0.00 0.00 42 1017.7
20260902131905 27 216 4.8 12.9 0.00 0.00 0.00 41 1017.7
20260902131404 27 214 8.0 14.5 0.00 0.00 0.00 42 1017.7
20260902130904 26 172 8.0 16.1 0.00 0.00 0.00 41 1017.7
20260902125904 26 232 6.4 12.9 0.00 0.00 0.00 43 1017.8
20260902125404 26 230 4.8 14.5 0.00 0.00 0.00 44 1017.8
20260902124905 26 214 8.0 19.3 0.00 0.00 0.00 43 1017.9
20260902123904 26 271 4.8 9.7 0.00 0.00 0.00 44 1018.0
20260902123404 26 198 6.4 14.5 0.00 0.00 0.00 44 1018.1
20260902122904 26 203 3.2 9.7 0.00 0.00 0.00 44 1018.1
20260902122404 26 197 3.2 12.9 0.00 0.00 0.00 45 1018.2
20260902121905 26 211 9.7 16.1 0.00 0.00 0.00 46 1018.2
20260902121404 25 194 3.2 14.5 0.00 0.00 0.00 45 1018.3
20260902120904 25 178 4.8 16.1 0.00 0.00 0.00 45 1018.4
20260902115904 26 229 6.4 14.5 0.00 0.00 0.00 46 1018.3
20260902115404 26 209 9.7 22.5 0.00 0.00 0.00 47 1018.4
20260902114905 25 242 6.4 12.9 0.00 0.00 0.00 46 1018.4
20260902113904 25 229 4.8 11.3 0.00 0.00 0.00 47 1018.5
20260902113404 25 251 4.8 19.3 0.00 0.00 0.00 49 1018.5
20260902112904 25 193 3.2 16.1 0.00 0.00 0.00 48 1018.6
20260902112404 25 229 4.8 14.5 0.00 0.00 0.00 49 1018.6
20260902111904 25 178 4.8 14.5 0.00 0.00 0.00 51 1018.7
20260902111404 25 194 4.8 12.9 0.00 0.00 0.00 50 1018.7
20260902110904 24 273 6.4 11.3 0.00 0.00 0.00 50 1018.7
20260902110404 24 234 8.0 19.3 0.00 0.00 0.00 51 1018.8
20260902105905 24 222 3.2 12.9 0.00 0.00 0.00 50 1018.9
20260902104904 24 212 8.0 19.3 0.00 0.00 0.00 52 1019.0
20260902104404 24 266 4.8 11.3 0.00 0.00 0.00 51 1019.0
20260902103905 24 234 8.0 14.5 0.00 0.00 0.00 52 1019.1
20260902103405 24 202 3.2 8.0 0.00 0.00 0.00 52 1019.1
20260902102904 24 200 4.8 9.7 0.00 0.00 0.00 52 1019.1
20260902102404 24 171 4.8 8.0 0.00 0.00 0.00 52 1019.1
20260902101904 24 145 4.8 12.9 0.00 0.00 0.00 52 1019.2
20260902100904 23 218 6.4 12.9 0.00 0.00 0.00 54 1019.3
20260902100405 23 238 0.0 4.8 0.00 0.00 0.00 53 1019.3
20260902095904 23 283 3.2 8.0 0.00 0.00 0.00 54 1019.4
20260902095404 23 266 1.6 3.2 0.00 0.00 0.00 54 1019.3
20260902094904 23 274 1.6 4.8 0.00 0.00 0.00 53 1019.4
20260902094404 23 274 3.2 4.8 0.00 0.00 0.00 55 1019.5
20260902093904 23 273 3.2 9.7 0.00 0.00 0.00 56 1019.5
20260902092904 23 278 4.8 11.3 0.00 0.00 0.00 58 1019.6
20260902092404 22 272 3.2 8.0 0.00 0.00 0.00 58 1019.6
20260902091904 22 225 3.2 4.8 0.00 0.00 0.00 58 1019.6
20260902090904 22 264 4.8 9.7 0.00 0.00 0.00 60 1019.7
20260902090405 22 197 1.6 3.2 0.00 0.00 0.00 60 1019.8
20260902085904 22 211 1.6 4.8 0.00 0.00 0.00 61 1019.8
20260902085404 22 210 0.0 4.8 0.00 0.00 0.00 61 1019.9
20260902084905 21 210 1.6 8.0 0.00 0.00 0.00 61 1019.9
20260902084404 21 204 1.6 11.3 0.00 0.00 0.00 62 1019.9
20260902083904 21 202 3.2 4.8 0.00 0.00 0.00 64 1019.9
20260902083404 20 225 1.6 4.8 0.00 0.00 0.00 65 1019.9
20260902082904 20 284 1.6 4.8 0.00 0.00 0.00 67 1019.9
20260902082404 20 33 0.0 3.2 0.00 0.00 0.00 68 1019.9
20260902081904 20 33 1.6 4.8 0.00 0.00 0.00 68 1019.9
20260902081404 19 33 0.0 3.2 0.00 0.00 0.00 68 1019.9
20260902080904 18 33 1.6 4.8 0.00 0.00 0.00 71 1019.9
20260902075904 18 33 1.6 4.8 0.00 0.00 0.00 77 1019.8
20260902074904 17 33 0.0 1.6 0.00 0.00 0.00 82 1019.9
20260902074404 17 33 0.0 1.6 0.00 0.00 0.00 81 1019.9
20260902073904 16 33 0.0 3.2 0.00 0.00 0.00 82 1019.9
20260902073404 16 33 1.6 3.2 0.00 0.00 0.00 83 1019.8
20260902072904 16 33 0.0 3.2 0.00 0.00 0.00 87 1019.8
20260902072404 15 33 1.6 3.2 0.00 0.00 0.00 87 1019.7
20260902071904 15 33 1.6 3.2 0.00 0.00 0.00 89 1019.6
20260902071404 15 33 1.6 4.8 0.00 0.00 0.00 90 1019.6
20260902070404 13 28 3.2 4.8 0.00 0.00 0.00 91 1019.6
20260902065905 13 28 3.2 4.8 0.00 0.00 0.00 92 1019.6
20260902064905 13 5 0.0 3.2 0.00 0.00 0.00 92 1019.5
20260902064405 13 5 0.0 0.0 0.00 0.00 0.00 92 1019.5
20260902063904 13 5 0.0 0.0 0.00 0.00 0.00 92 1019.5
20260902063404 13 5 0.0 0.0 0.00 0.00 0.00 92 1019.5
20260902062404 12 5 0.0 0.0 0.00 0.00 0.00 92 1019.6
20260902061904 12 5 0.0 1.6 0.00 0.00 0.00 92 1019.6
20260902060905 12 5 0.0 3.2 0.00 0.00 0.00 92 1019.6
20260902060405 12 5 0.0 3.2 0.00 0.00 0.00 92 1019.6
20260902055904 12 5 0.0 3.2 0.00 0.00 0.00 92 1019.7
20260902055404 11 5 1.6 3.2 0.00 0.00 0.00 92 1019.7
20260902054904 11 5 0.0 0.0 0.00 0.00 0.00 92 1019.7
20260902053904 11 5 0.0 0.0 0.00 0.00 0.00 92 1019.7
20260902053405 11 5 0.0 0.0 0.00 0.00 0.00 92 1019.7
20260902052905 11 5 0.0 0.0 0.00 0.00 0.00 92 1019.7
20260902051404 11 5 0.0 1.6 0.00 0.00 0.00 92 1019.5
20260902050904 11 5 0.0 0.0 0.00 0.00 0.00 92 1019.5
20260902050404 11 5 0.0 0.0 0.00 0.00 0.00 91 1019.5
20260902044404 11 5 0.0 0.0 0.00 0.00 0.00 91 1019.4
20260902043904 11 5 0.0 0.0 0.00 0.00 0.00 91 1019.4
20260902043404 11 5 0.0 0.0 0.00 0.00 0.00 91 1019.3
20260902042904 11 5 0.0 0.0 0.00 0.00 0.00 91 1019.3
20260902042404 11 5 0.0 3.2 0.00 0.00 0.00 91 1019.3
20260902041404 11 5 1.6 3.2 0.00 0.00 0.00 91 1019.2
20260902040904 11 5 1.6 3.2 0.00 0.00 0.00 90 1019.1
20260902035904 11 5 0.0 0.0 0.00 0.00 0.00 90 1019.2
20260902035405 11 5 0.0 0.0 0.00 0.00 0.00 90 1019.2
20260902034904 11 5 0.0 0.0 0.00 0.00 0.00 90 1019.2
20260902034404 11 5 0.0 0.0 0.00 0.00 0.00 90 1019.1
20260902033904 11 5 0.0 0.0 0.00 0.00 0.00 90 1019.1
20260902033404 11 5 0.0 0.0 0.00 0.00 0.00 90 1019.1
20260902032404 11 5 0.0 0.0 0.00 0.00 0.00 90 1019.1
20260902031404 11 5 0.0 0.0 0.00 0.00 0.00 90 1019.1
20260902030904 11 5 0.0 1.6 0.00 0.00 0.00 90 1019.1
20260902030404 11 5 0.0 1.6 0.00 0.00 0.00 90 1019.2
20260902024904 11 5 1.6 3.2 0.00 0.00 0.00 90 1019.2
20260902024404 11 5 1.6 3.2 0.00 0.00 0.00 90 1019.2
20260902023904 11 5 0.0 0.0 0.00 0.00 0.00 90 1019.3
20260902023404 11 5 0.0 0.0 0.00 0.00 0.00 90 1019.4
20260902022905 11 5 1.6 3.2 0.00 0.00 0.00 90 1019.4
20260902022404 11 5 1.6 3.2 0.00 0.00 0.00 90 1019.4
20260902021905 11 5 0.0 3.2 0.00 0.00 0.00 90 1019.5
20260902021404 11 5 3.2 4.8 0.00 0.00 0.00 90 1019.5
20260902020904 11 5 1.6 3.2 0.00 0.00 0.00 90 1019.5
20260902020404 11 5 1.6 3.2 0.00 0.00 0.00 89 1019.5
20260902015904 11 5 1.6 4.8 0.00 0.00 0.00 89 1019.4
20260902015405 11 321 3.2 4.8 0.00 0.00 0.00 89 1019.4
20260902014904 11 294 0.0 4.8 0.00 0.00 0.00 89 1019.3
20260902014404 11 294 0.0 0.0 0.00 0.00 0.00 89 1019.4
20260902013904 11 294 0.0 0.0 0.00 0.00 0.00 89 1019.4
20260902013404 11 294 0.0 0.0 0.00 0.00 0.00 88 1019.4
20260902012404 11 294 0.0 0.0 0.00 0.00 0.00 88 1019.4
20260902011905 11 294 0.0 0.0 0.00 0.00 0.00 88 1019.4
20260902011404 11 294 0.0 0.0 0.00 0.00 0.00 88 1019.3
20260902010904 11 294 0.0 0.0 0.00 0.00 0.00 88 1019.3
20260902010404 11 294 0.0 0.0 0.00 0.00 0.00 88 1019.3
20260902005904 11 294 0.0 0.0 0.00 0.00 0.00 88 1019.3
20260902005404 11 294 0.0 0.0 0.00 0.00 0.00 88 1019.3
20260902004904 11 294 0.0 0.0 0.00 0.00 0.00 87 1019.3
20260902004404 11 294 0.0 0.0 0.00 0.00 0.00 87 1019.2
20260902003904 11 294 0.0 0.0 0.00 0.00 0.00 87 1019.2
20260902002905 12 294 0.0 0.0 0.00 0.00 0.00 87 1019.3
20260902002405 12 294 0.0 0.0 0.00 0.00 0.00 87 1019.3
20260902001904 12 294 0.0 0.0 0.00 0.00 0.00 87 1019.3
20260902001405 12 294 0.0 0.0 0.00 0.00 0.00 86 1019.3
20260902000905 12 294 0.0 0.0 0.00 0.00 0.00 87 1019.3
20260902000406 12 294 0.0 0.0 0.00 0.00 0.00 86 1019.3
20260901235904 12 294 0.0 0.0 0.00 0.00 0.00 86 1019.2
20260901235406 12 294 0.0 0.0 0.00 0.00 0.00 86 1019.2
20260901234904 12 294 0.0 0.0 0.00 0.00 0.00 86 1019.3
20260901234404 12 294 0.0 0.0 0.00 0.00 0.00 86 1019.2
20260901233904 12 294 0.0 0.0 0.00 0.00 0.00 86 1019.2
20260901233404 12 294 0.0 0.0 0.00 0.00 0.00 86 1019.2
20260901232404 12 294 0.0 0.0 0.00 0.00 0.00 85 1019.1
20260901231404 12 294 0.0 0.0 0.00 0.00 0.00 86 1019.1
20260901230904 12 294 0.0 20.9 0.00 0.00 0.00 86 1019.1
20260901230404 13 294 0.0 0.0 0.00 0.00 0.00 85 1019.1
20260901225905 13 294 0.0 0.0 0.00 0.00 0.00 85 1019.2
20260901225404 13 294 0.0 0.0 0.00 0.00 0.00 85 1019.2
20260901224904 13 294 0.0 0.0 0.00 0.00 0.00 85 1019.1
20260901224404 13 294 0.0 0.0 0.00 0.00 0.00 85 1019.1
20260901223405 13 294 0.0 0.0 0.00 0.00 0.00 84 1019.1
20260901222904 13 294 0.0 0.0 0.00 0.00 0.00 84 1019.1
20260901222404 13 294 0.0 0.0 0.00 0.00 0.00 83 1019.2
20260901221404 13 294 0.0 0.0 0.00 0.00 0.00 83 1019.2
20260901220904 13 294 0.0 0.0 0.00 0.00 0.00 83 1019.1
20260901215904 13 294 0.0 0.0 0.00 0.00 0.00 82 1019.1
20260901215404 13 294 0.0 0.0 0.00 0.00 0.00 82 1019.1
20260901214905 13 294 0.0 0.0 0.00 0.00 0.00 82 1019.1
20260901214404 14 294 0.0 0.0 0.00 0.00 0.00 82 1019.1